Richmond, VA

5:16 PM EST on November 18, 2017 (GMT -0500)
Richmond International

Weather History for KRIC - January, 2013

Change the Weather History Date:

Saturday, January 12, 2013

  Actual Average Record
Temperature  
Mean Temperature 51 °F 38 °F  
Max Temperature 54 °F 47 °F 71 °F (2005)
Min Temperature 48 °F 28 °F -1 °F (1942)
Degree Days  
Heating Degree Days 14 27  
Month to date heating degree days 271 324  
Since 1 July heating degree days 1585 1743  
Cooling Degree Days 0 0  
Month to date cooling degree days 0 0  
Year to date cooling degree days 0 0  
Moisture  
Dew Point 50 °F    
Average Humidity 95    
Maximum Humidity 100    
Minimum Humidity 89    
Precipitation  
Precipitation 0.00 in 0.10 in 1.76 in (1915)
Month to date precipitation 0.32 1.17  
Year to date precipitation 0.32 1.17  
Snow  
Snow 0.00 in 0.10 in 3.80 in (1964)
Month to date snowfall 0.0 1.2  
Since 1 July snowfall 0.0 3.5  
Snow Depth 0.00 in    
Sea Level Pressure  
Sea Level Pressure 30.14 in    
Wind  
Wind Speed 2 mph (SSW)    
Max Wind Speed 12 mph    
Max Gust Speed 14 mph    
Visibility 2 miles    
Events Fog    
T = Trace of Precipitation, MM = Missing Value Source: NWS Daily Summary

Daily Weather History Graph

Daily Weather History Graph

Search for Another Location

Airport or City:

Trip Planner

Search our weather history database for the weather conditions in past years. The results will help you decide how hot, cold, wet, or windy it might be!

Date:

Astronomy

Jan. 12, 2013 Rise Set
Actual Time 7:23 AM EST 5:12 PM EST
Civil Twilight 6:54 AM EST 5:40 PM EST
Nautical Twilight 6:22 AM EST 6:13 PM EST
Astronomical Twilight 5:51 AM EST 6:44 PM EST
Moon 7:43 AM EST (1/12) 6:36 PM EST (1/12)
Length of Visible Light 10h 45m
Length of Day
9h 48m
New Moon, 1% of the Moon is Illuminated
Jan 12
New Moon
Jan 18
First Quarter
Jan 26
Full
Feb 3
Last Quarter
Feb 10
New

Hourly Weather History & Observations

Time (EST) Temp. Dew Point Humidity Pressure Visibility Wind Dir Wind Speed Gust Speed Precip Events Conditions
12:54 AM 50.0 °F 48.0 °F 93% 30.13 in 5.0 mi WSW 8.1 mph - N/A   Overcast
1:54 AM 50.0 °F 48.0 °F 93% 30.14 in 4.0 mi WSW 8.1 mph - N/A   Overcast
2:54 AM 50.0 °F 48.2 °F 94% 30.11 in 5.0 mi WSW 5.8 mph - N/A   Overcast
3:54 AM 50.0 °F 48.9 °F 96% 30.12 in 4.0 mi Calm Calm - N/A   Overcast
4:22 AM 51.8 °F 50.0 °F 94% 30.11 in 2.5 mi WNW 3.5 mph - N/A   Overcast
4:36 AM 51.8 °F 50.0 °F 94% 30.10 in 3.0 mi Calm Calm - N/A   Overcast
4:54 AM 50.0 °F 48.9 °F 96% 30.12 in 2.5 mi Calm Calm - N/A   Overcast
4:59 AM 50.0 °F 48.2 °F 94% 30.10 in 1.2 mi Calm Calm - N/A   Overcast
5:05 AM 50.0 °F 48.2 °F 94% 30.10 in 0.8 mi Calm Calm - N/A   Overcast
5:54 AM 50.0 °F 48.9 °F 96% 30.13 in 0.2 mi Calm Calm - N/A Fog Fog
6:54 AM 50.0 °F 48.9 °F 96% 30.14 in 0.2 mi Calm Calm - N/A Fog Fog
7:17 AM 50.0 °F 48.2 °F 94% 30.13 in 0.2 mi Calm Calm - N/A Fog Fog
7:27 AM 50.0 °F 48.2 °F 94% 30.13 in 0.2 mi Calm Calm - N/A Fog Fog
7:54 AM 50.0 °F 48.9 °F 96% 30.16 in 0.2 mi Calm Calm - N/A Fog Fog
8:54 AM 48.0 °F 48.0 °F 100% 30.18 in 0.2 mi NNE 5.8 mph - N/A Fog Fog
9:09 AM 48.2 °F 48.2 °F 100% 30.16 in 0.2 mi NNE 4.6 mph - N/A Fog Fog
9:51 AM 48.2 °F 48.2 °F 100% 30.17 in 2.0 mi Calm Calm - N/A   Overcast
9:54 AM 48.9 °F 48.0 °F 97% 30.18 in 2.0 mi Calm Calm - N/A   Overcast
9:56 AM 48.2 °F 48.2 °F 100% 30.17 in 0.5 mi NNE 3.5 mph - N/A   Overcast
10:54 AM 48.9 °F 48.0 °F 97% 30.18 in 1.0 mi Calm Calm - N/A   Overcast
11:54 AM 50.0 °F 48.9 °F 96% 30.16 in 1.0 mi Calm Calm - N/A   Overcast
12:32 PM 51.8 °F 48.2 °F 88% 30.15 in 1.5 mi West 3.5 mph - N/A   Overcast
12:41 PM 51.8 °F 48.2 °F 88% 30.14 in 2.0 mi WNW 3.5 mph - N/A   Overcast
12:54 PM 52.0 °F 48.9 °F 89% 30.16 in 2.0 mi Calm Calm - N/A   Overcast
1:35 PM 53.6 °F 48.2 °F 82% 30.14 in 2.0 mi Calm Calm - N/A   Overcast
1:54 PM 52.0 °F 50.0 °F 93% 30.15 in 5.0 mi SE 3.5 mph - N/A   Overcast
2:45 PM 53.6 °F 50.0 °F 88% 30.14 in 5.0 mi Calm Calm - N/A   Overcast
2:54 PM 53.1 °F 50.0 °F 89% 30.15 in 5.0 mi Calm Calm - N/A   Overcast
3:54 PM 53.1 °F 51.1 °F 93% 30.15 in 5.0 mi SSW 3.5 mph - N/A   Overcast
4:54 PM 53.1 °F 51.1 °F 93% 30.16 in 5.0 mi Calm Calm - N/A   Overcast
5:31 PM 53.6 °F 51.8 °F 94% 30.13 in 2.5 mi ESE 3.5 mph - N/A   Overcast
5:54 PM 52.0 °F 51.1 °F 97% 30.15 in 1.0 mi SSE 4.6 mph - N/A   Overcast
6:18 PM 51.8 °F 51.8 °F 100% 30.14 in 1.0 mi Calm Calm - N/A   Mist
6:26 PM 51.8 °F 51.8 °F 100% 30.14 in 0.8 mi SSW 3.5 mph - N/A   Mist
6:33 PM 51.8 °F 51.8 °F 100% 30.14 in 0.5 mi Calm Calm - N/A Fog Fog
6:54 PM 52.0 °F 52.0 °F 100% 30.17 in 0.2 mi Calm Calm - N/A Fog Fog
7:49 PM 51.8 °F 51.8 °F 100% 30.14 in 0.2 mi Calm Calm - N/A Fog Fog
7:54 PM 52.0 °F 52.0 °F 100% 30.15 in 0.2 mi Calm Calm - N/A Fog Fog
8:54 PM 52.0 °F 52.0 °F 100% 30.16 in 0.2 mi Calm Calm - N/A Fog Fog
9:54 PM 52.0 °F 52.0 °F 100% 30.15 in 0.2 mi Calm Calm - N/A Fog Fog
10:54 PM 53.1 °F 53.1 °F 100% 30.15 in 0.2 mi SSE 3.5 mph - N/A Fog Fog
11:54 PM 53.1 °F 53.1 °F 100% 30.15 in 0.2 mi SSE 4.6 mph - N/A Fog Fog